Manistique, MI

2:35 AM EDT on March 25, 2017 (GMT -0400)
Schoolcraft County

Weather History for KISQ - July, 2012

Change the Weather History Date:

Tuesday, July 24, 2012

  Actual Average Record
Temperature  
Mean Temperature 66 °F -  
Max Temperature 78 °F 75 °F 91 °F (1999)
Min Temperature 55 °F 57 °F 41 °F (2013)
Cooling Degree Days 2    
Growing Degree Days 16 (Base 50)    
Moisture  
Dew Point 59 °F    
Average Humidity 74    
Maximum Humidity 94    
Minimum Humidity 42    
Precipitation  
Precipitation 0.00 in - - ()
Sea Level Pressure  
Sea Level Pressure 29.98 in    
Wind  
Wind Speed 5 mph (West)    
Max Wind Speed 14 mph    
Max Gust Speed 17 mph    
Visibility 9 miles    
Events      
Averages and records for this station are not official NWS values.
T = Trace of Precipitation, MM = Missing Value Source: NWS Daily Summary

Daily Weather History Graph

Daily Weather History Graph

Search for Another Location

Airport or City:

Trip Planner

Search our weather history database for the weather conditions in past years. The results will help you decide how hot, cold, wet, or windy it might be!

Date:

Astronomy

Jul. 24, 2012 Rise Set
Actual Time 6:18 AM EDT 9:23 PM EDT
Civil Twilight 5:42 AM EDT 9:58 PM EDT
Nautical Twilight 4:56 AM EDT 10:44 PM EDT
Astronomical Twilight 4:01 AM EDT 11:39 PM EDT
Moon 12:39 PM EDT (7/24) 11:45 PM EDT (7/24)
Length of Visible Light 16h 15m
Length of Day
15h 04m
Waxing Crescent, 31% of the Moon is Illuminated
Jul 24
Waxing Crescent
Jul 26
First Quarter
Aug 1
Full
Aug 9
Last Quarter
Aug 17
New

Hourly Weather History & Observations

Time (EDT) Temp. Dew Point Humidity Pressure Visibility Wind Dir Wind Speed Gust Speed Precip Events Conditions
12:14 AM 68.0 °F 60.8 °F 78% 29.92 in 10.0 mi NNW 6.9 mph - N/A   Clear
12:35 AM 66.2 °F 60.8 °F 83% 29.92 in 10.0 mi NNW 4.6 mph - N/A   Clear
12:55 AM 66.2 °F 60.8 °F 83% 29.92 in 10.0 mi NNW 6.9 mph - N/A   Clear
1:14 AM 64.4 °F 60.8 °F 88% 29.92 in 10.0 mi NNW 6.9 mph - N/A   Clear
1:35 AM 64.4 °F 60.8 °F 88% 29.93 in 10.0 mi NNW 4.6 mph - N/A   Clear
1:54 AM 64.4 °F 60.8 °F 88% 29.93 in 10.0 mi NNW 5.8 mph - N/A   Clear
2:15 AM 62.6 °F 59.0 °F 88% 29.92 in 10.0 mi NNW 4.6 mph - N/A   Clear
2:34 AM 62.6 °F 59.0 °F 88% 29.93 in 10.0 mi NW 3.5 mph - N/A   Clear
2:55 AM 60.8 °F 57.2 °F 88% 29.93 in 10.0 mi Calm Calm - N/A   Clear
3:15 AM 60.8 °F 57.2 °F 88% 29.93 in 10.0 mi Calm Calm - N/A   Clear
3:34 AM 59.0 °F 55.4 °F 88% 29.93 in 2.0 mi Calm Calm - N/A   Clear
3:55 AM 57.2 °F 55.4 °F 94% 29.94 in 0.8 mi Calm Calm - N/A   Mist
4:15 AM 57.2 °F 55.4 °F 94% 29.94 in 2.0 mi Calm Calm - N/A   Clear
4:34 AM 55.4 °F 53.6 °F 94% 29.94 in 0.8 mi North 4.6 mph - N/A   Mist
4:55 AM 57.2 °F 55.4 °F 94% 29.95 in 10.0 mi NNW 4.6 mph - N/A   Clear
5:15 AM 57.2 °F 55.4 °F 94% 29.96 in 10.0 mi North 4.6 mph - N/A   Clear
5:34 AM 57.2 °F 55.4 °F 94% 29.96 in 10.0 mi North 4.6 mph - N/A   Clear
5:55 AM 59.0 °F 57.2 °F 94% 29.97 in 10.0 mi NNW 4.6 mph - N/A   Clear
6:14 AM 59.0 °F 55.4 °F 88% 29.97 in 7.0 mi North 4.6 mph - N/A   Clear
6:35 AM 57.2 °F 55.4 °F 94% 29.98 in 5.0 mi North 4.6 mph - N/A   Clear
6:55 AM 60.8 °F 57.2 °F 88% 29.99 in 7.0 mi North 3.5 mph - N/A   Clear
7:14 AM 60.8 °F 57.2 °F 88% 29.99 in 5.0 mi North 3.5 mph - N/A   Clear
7:35 AM 62.6 °F 60.8 °F 94% 30.00 in 7.0 mi North 3.5 mph - N/A   Clear
7:55 AM 62.6 °F 60.8 °F 94% 30.00 in 10.0 mi North 4.6 mph - N/A   Clear
8:14 AM 64.4 °F 60.8 °F 88% 30.01 in 10.0 mi North 5.8 mph - N/A   Clear
8:35 AM 66.2 °F 62.6 °F 88% 30.01 in 10.0 mi North 4.6 mph - N/A   Clear
8:55 AM 68.0 °F 62.6 °F 83% 30.02 in 10.0 mi Calm Calm - N/A   Clear
9:14 AM 69.8 °F 60.8 °F 73% 30.03 in 10.0 mi NE 3.5 mph - N/A   Clear
9:35 AM 71.6 °F 60.8 °F 69% 30.03 in 10.0 mi NE 5.8 mph - N/A   Clear
9:55 AM 71.6 °F 57.2 °F 60% 30.03 in 10.0 mi NE 5.8 mph - N/A   Clear
10:14 AM 73.4 °F 57.2 °F 57% 30.04 in 10.0 mi NE 4.6 mph - N/A   Clear
10:35 AM 73.4 °F 57.2 °F 57% 30.03 in 10.0 mi Calm Calm - N/A   Clear
10:54 AM 73.4 °F 55.4 °F 53% 30.03 in 10.0 mi Calm Calm - N/A   Clear
11:15 AM 75.2 °F 57.2 °F 53% 30.03 in 10.0 mi NNE 6.9 mph - N/A   Scattered Clouds
11:34 AM 75.2 °F 53.6 °F 47% 30.03 in 10.0 mi NW 3.5 mph - N/A   Clear
11:55 AM 78.8 °F 53.6 °F 42% 30.03 in 10.0 mi Calm Calm - N/A   Clear
12:15 PM 75.2 °F 57.2 °F 53% 30.03 in 10.0 mi SSW 5.8 mph - N/A   Clear
12:34 PM 75.2 °F 59.0 °F 57% 30.03 in 10.0 mi SSW 6.9 mph - N/A   Clear
12:55 PM 75.2 °F 57.2 °F 53% 30.02 in 10.0 mi South 9.2 mph - N/A   Clear
1:14 PM 78.8 °F 59.0 °F 51% 30.02 in 10.0 mi SSW 9.2 mph - N/A   Clear
1:35 PM 78.8 °F 59.0 °F 51% 30.02 in 10.0 mi SSW 9.2 mph - N/A   Clear
1:55 PM 75.2 °F 60.8 °F 61% 30.01 in 10.0 mi SSW 13.8 mph - N/A   Clear
2:14 PM 77.0 °F 60.8 °F 57% 30.01 in 10.0 mi SSW 10.4 mph - N/A   Clear
2:35 PM 78.8 °F 60.8 °F 54% 30.00 in 10.0 mi South 9.2 mph - N/A   Clear
2:55 PM 75.2 °F 60.8 °F 61% 30.00 in 10.0 mi SSW 11.5 mph - N/A   Clear
3:14 PM 78.8 °F 60.8 °F 54% 29.99 in 10.0 mi SSW 10.4 mph 16.1 mph N/A   Clear
3:35 PM 77.0 °F 60.8 °F 57% 29.99 in 10.0 mi South 11.5 mph - N/A   Clear
3:54 PM 77.0 °F 60.8 °F 57% 29.99 in 10.0 mi SSW 11.5 mph - N/A   Clear
4:14 PM 77.0 °F 64.4 °F 65% 29.99 in 10.0 mi SSW 12.7 mph 17.3 mph N/A   Clear
4:35 PM 77.0 °F 62.6 °F 61% 29.98 in 10.0 mi SSW 8.1 mph - N/A   Clear
4:54 PM 75.2 °F 62.6 °F 65% 29.98 in 10.0 mi SSW 8.1 mph - N/A   Clear
5:15 PM 77.0 °F 62.6 °F 61% 29.97 in 10.0 mi South 9.2 mph - N/A   Clear
5:35 PM 75.2 °F 62.6 °F 65% 29.97 in 10.0 mi South 8.1 mph - N/A   Clear
5:54 PM 75.2 °F 62.6 °F 65% 29.98 in 10.0 mi SSW 9.2 mph - N/A   Clear
6:15 PM 75.2 °F 62.6 °F 65% 29.97 in 10.0 mi SSW 9.2 mph - N/A   Clear
6:35 PM 75.2 °F 60.8 °F 61% 29.97 in 10.0 mi SSW 8.1 mph - N/A   Clear
6:54 PM 75.2 °F 59.0 °F 57% 29.98 in 10.0 mi SSW 5.8 mph - N/A   Clear
7:15 PM 75.2 °F 60.8 °F 61% 29.98 in 10.0 mi South 6.9 mph - N/A   Clear
7:35 PM 75.2 °F 60.8 °F 61% 29.98 in 10.0 mi South 5.8 mph - N/A   Clear
7:55 PM 73.4 °F 62.6 °F 69% 29.99 in 10.0 mi SW 4.6 mph - N/A   Clear
8:15 PM 73.4 °F 62.6 °F 69% 29.99 in 10.0 mi Calm Calm - N/A   Clear
8:34 PM 71.6 °F 62.6 °F 73% 29.99 in 10.0 mi Calm Calm - N/A   Clear
8:55 PM 71.6 °F 60.8 °F 69% 29.98 in 10.0 mi Calm Calm - N/A   Clear
9:15 PM 68.0 °F 60.8 °F 78% 29.98 in 10.0 mi Calm Calm - N/A   Clear
9:34 PM 66.2 °F 60.8 °F 83% 29.99 in 10.0 mi Calm Calm - N/A   Clear
9:55 PM 64.4 °F 59.0 °F 83% 29.99 in 10.0 mi Calm Calm - N/A   Clear
10:15 PM 62.6 °F 59.0 °F 88% 29.99 in 10.0 mi Calm Calm - N/A   Clear
10:55 PM 60.8 °F 57.2 °F 88% 29.99 in 10.0 mi Calm Calm - N/A   Clear
11:18 PM 60.8 °F 57.2 °F 88% 29.99 in 10.0 mi Calm Calm - N/A   Clear
11:34 PM 59.0 °F 55.4 °F 88% 29.99 in 10.0 mi Calm Calm - N/A   Clear
11:55 PM 57.2 °F 55.4 °F 94% 29.99 in 10.0 mi Calm Calm - N/A   Clear